Weather History for KRME - December, 2013

Change the Weather History Date:

Saturday, December 7, 2013

  Actual Average Record
Temperature  
Mean Temperature 28 °F -  
Max Temperature 30 °F 37 °F 47 °F (1982)
Min Temperature 25 °F 20 °F 6 °F (2008)
Degree Days  
Heating Degree Days 38    
Moisture  
Dew Point 25 °F    
Average Humidity 85    
Maximum Humidity 93    
Minimum Humidity 66    
Precipitation  
Precipitation 0.04 in - - ()
Sea Level Pressure  
Sea Level Pressure 30.34 in    
Wind  
Wind Speed 9 mph (WNW)    
Max Wind Speed 17 mph    
Max Gust Speed 25 mph    
Visibility 5 miles    
Events Fog , Snow    
Averages and records for this station are not official NWS values.
T = Trace of Precipitation, MM = Missing Value Source: NWS Daily Summary

Daily Weather History Graph

Daily Weather History Graph

Search for Another Location

Airport or City:

Trip Planner

Search our weather history database for the weather conditions in past years. The results will help you decide how hot, cold, wet, or windy it might be!

Date:

Astronomy

Dec. 07, 2013 Rise Set
Actual Time 7:20 AM EST 4:26 PM EST
Civil Twilight 6:47 AM EST 4:58 PM EST
Nautical Twilight 6:12 AM EST 5:34 PM EST
Astronomical Twilight 5:37 AM EST 6:08 PM EST
Moon 10:58 AM EST (12/7) 10:11 PM EST (12/7)
Length of Visible Light 10h 10m
Length of Day
9h 05m
Waxing Crescent, 29% of the Moon is Illuminated
Dec 7
Waxing Crescent
Dec 9
First Quarter
Dec 17
Full
Dec 25
Last Quarter
Jan 1
New

Hourly Weather History & Observations

Time (EST) Temp. Windchill Dew Point Humidity Pressure Visibility Wind Dir Wind Speed Gust Speed Precip Events Conditions
12:22 AM 30.0 °F 21.1 °F 28.0 °F 92% 30.19 in 2.0 mi West 10.4 mph - 0.00 in Snow Light Snow
12:48 AM 30.2 °F 21.9 °F 28.4 °F 93% 30.19 in 4.0 mi West 9.2 mph - 0.01 in Snow Light Snow
12:53 AM 30.0 °F 21.7 °F 28.0 °F 92% 30.21 in 4.0 mi West 9.2 mph - 0.01 in Snow Light Snow
1:08 AM 30.0 °F 22.4 °F 28.0 °F 92% 30.20 in 6.0 mi West 8.1 mph - 0.00 in Snow Light Snow
1:15 AM 30.9 °F 23.5 °F 28.0 °F 89% 30.21 in 8.0 mi West 8.1 mph - 0.00 in   Overcast
1:33 AM 30.9 °F 22.8 °F 28.0 °F 89% 30.20 in 10.0 mi West 9.2 mph - 0.00 in   Overcast
1:46 AM 30.9 °F 22.8 °F 28.0 °F 89% 30.20 in 4.0 mi West 9.2 mph - 0.00 in Snow Light Snow
1:53 AM 30.0 °F 23.2 °F 28.0 °F 92% 30.21 in 3.0 mi West 6.9 mph - 0.00 in Snow Light Snow
2:00 AM 30.0 °F 21.7 °F 28.0 °F 92% 30.20 in 2.5 mi West 9.2 mph - 0.00 in Snow Light Snow
2:11 AM 30.0 °F 21.7 °F 28.0 °F 92% 30.21 in 4.0 mi West 9.2 mph - 0.00 in Snow Light Snow
2:20 AM 30.0 °F 20.5 °F 27.0 °F 88% 30.21 in 6.0 mi West 11.5 mph - 0.00 in Snow Light Snow
2:41 AM 30.0 °F 21.7 °F 27.0 °F 88% 30.22 in 9.0 mi WNW 9.2 mph - 0.00 in Snow Light Snow
2:53 AM 30.0 °F 21.1 °F 28.0 °F 92% 30.23 in 7.0 mi West 10.4 mph - 0.00 in Snow Light Snow
3:36 AM 30.0 °F 21.7 °F 28.0 °F 92% 30.23 in 2.0 mi WNW 9.2 mph - 0.00 in Snow Light Snow
3:45 AM 30.0 °F 21.1 °F 27.0 °F 88% 30.23 in 3.0 mi West 10.4 mph - 0.00 in Snow Light Snow
3:53 AM 30.0 °F 21.7 °F 27.0 °F 88% 30.24 in 5.0 mi West 9.2 mph - 0.00 in Snow Light Snow
4:53 AM 30.0 °F 24.1 °F 26.1 °F 85% 30.25 in 10.0 mi WNW 5.8 mph - 0.00 in   Overcast
5:53 AM 30.0 °F 24.1 °F 26.1 °F 85% 30.27 in 10.0 mi WNW 5.8 mph - N/A   Overcast
6:15 AM 30.0 °F 25.2 °F 27.0 °F 88% 30.27 in 10.0 mi WNW 4.6 mph - N/A   Overcast
6:31 AM 30.0 °F 24.1 °F 26.1 °F 85% 30.28 in 10.0 mi WNW 5.8 mph - N/A   Overcast
6:53 AM 30.0 °F 23.2 °F 25.0 °F 82% 30.29 in 9.0 mi WNW 6.9 mph - 0.00 in Snow Light Snow
7:02 AM 30.0 °F 24.1 °F 24.1 °F 79% 30.28 in 9.0 mi WNW 5.8 mph - 0.00 in Snow Light Snow
7:25 AM 30.0 °F 25.2 °F 26.1 °F 85% 30.29 in 6.0 mi NW 4.6 mph - 0.00 in Snow Light Snow
7:33 AM 30.0 °F 25.2 °F 26.1 °F 85% 30.29 in 8.0 mi NW 4.6 mph - 0.00 in Snow Light Snow
7:45 AM 30.0 °F 25.2 °F 26.1 °F 85% 30.30 in 6.0 mi NW 4.6 mph - 0.00 in Snow Light Snow
7:53 AM 30.0 °F 24.1 °F 26.1 °F 85% 30.31 in 5.0 mi NW 5.8 mph - 0.00 in Snow Light Snow
8:11 AM 30.0 °F 20.5 °F 25.0 °F 82% 30.31 in 2.0 mi WNW 11.5 mph - 0.00 in Snow Light Snow
8:23 AM 28.9 °F 20.4 °F 25.0 °F 85% 30.32 in 2.0 mi NW 9.2 mph - 0.01 in Snow Light Snow
8:32 AM 28.9 °F 21.1 °F 25.0 °F 85% 30.33 in 2.0 mi NW 8.1 mph - 0.01 in Snow Light Snow
8:51 AM 28.4 °F 20.4 °F 24.8 °F 86% 30.34 in 1.8 mi NW 8.1 mph - 0.01 in Snow Light Snow
8:53 AM 28.9 °F 21.1 °F 25.0 °F 85% 30.35 in 1.8 mi NW 8.1 mph - 0.01 in Snow Light Snow
9:13 AM 28.9 °F 20.4 °F 25.0 °F 85% 30.34 in 1.8 mi West 9.2 mph - 0.00 in Snow Light Snow
9:30 AM 28.9 °F 21.1 °F 25.0 °F 85% 30.35 in 3.0 mi WNW 8.1 mph - 0.00 in Snow Light Snow
9:38 AM 28.9 °F 20.4 °F 25.0 °F 85% 30.35 in 1.8 mi WNW 9.2 mph - 0.00 in Snow Light Snow
9:46 AM 28.9 °F 21.9 °F 26.1 °F 89% 30.35 in 1.5 mi WNW 6.9 mph - 0.00 in Snow Light Snow
9:53 AM 28.9 °F 21.1 °F 26.1 °F 89% 30.37 in 1.5 mi WNW 8.1 mph - 0.00 in Snow Light Snow
10:02 AM 28.9 °F 21.1 °F 26.1 °F 89% 30.36 in 2.0 mi West 8.1 mph - 0.00 in Snow Light Snow
10:16 AM 30.0 °F 21.7 °F 26.1 °F 85% 30.36 in 1.8 mi West 9.2 mph - 0.00 in Snow Light Snow
10:21 AM 30.0 °F 22.4 °F 26.1 °F 85% 30.36 in 1.5 mi WNW 8.1 mph - 0.00 in Snow Light Snow
10:37 AM 30.0 °F 20.5 °F 26.1 °F 85% 30.36 in 0.8 mi WNW 11.5 mph - 0.00 in Snow Light Snow
10:40 AM 30.0 °F 21.1 °F 26.1 °F 85% 30.36 in 1.2 mi WNW 10.4 mph - 0.00 in Snow Light Snow
10:44 AM 30.0 °F 20.5 °F 26.1 °F 85% 30.36 in 3.0 mi WNW 11.5 mph - 0.00 in Snow Light Snow
10:53 AM 30.0 °F 21.7 °F 26.1 °F 85% 30.38 in 8.0 mi WNW 9.2 mph - 0.00 in Snow Light Snow
11:16 AM 28.9 °F 19.8 °F 25.0 °F 85% 30.36 in 1.5 mi West 10.4 mph - 0.00 in Snow Light Snow
11:20 AM 28.9 °F 19.2 °F 26.1 °F 89% 30.36 in 0.8 mi West 11.5 mph - 0.00 in Snow Light Snow
11:27 AM 28.9 °F 19.8 °F 26.1 °F 89% 30.36 in 0.2 mi West 10.4 mph - 0.01 in Fog , Snow Snow
11:43 AM 28.9 °F 21.1 °F 26.1 °F 89% 30.35 in 2.0 mi WNW 8.1 mph - 0.02 in Snow Light Snow
11:53 AM 28.9 °F 18.2 °F 25.0 °F 85% 30.38 in 2.0 mi West 13.8 mph - 0.02 in Snow Light Snow
12:10 PM 30.0 °F 20.0 °F 26.1 °F 85% 30.36 in 2.0 mi West 12.7 mph - 0.00 in Snow Light Snow
12:20 PM 30.0 °F 19.5 °F 25.0 °F 82% 30.36 in 2.0 mi West 13.8 mph 19.6 mph 0.00 in Snow Light Snow
12:53 PM 30.0 °F 18.7 °F 24.1 °F 79% 30.37 in 2.0 mi West 16.1 mph - 0.00 in Snow Light Snow
12:55 PM 30.0 °F 18.7 °F 24.1 °F 79% 30.36 in 9.0 mi West 16.1 mph - 0.00 in Snow Light Snow
1:53 PM 30.0 °F 18.3 °F 21.9 °F 72% 30.38 in 8.0 mi West 17.3 mph 24.2 mph 0.00 in Snow Light Snow
2:53 PM 30.0 °F 19.1 °F 19.9 °F 66% 30.40 in 10.0 mi West 15.0 mph 25.3 mph 0.00 in   Overcast
3:53 PM 28.9 °F 16.9 °F 19.9 °F 69% 30.43 in 10.0 mi West 17.3 mph 24.2 mph N/A   Overcast
4:53 PM 28.0 °F 16.5 °F 19.0 °F 69% 30.44 in 10.0 mi WNW 15.0 mph 25.3 mph N/A   Overcast
5:53 PM 28.0 °F 17.0 °F 19.0 °F 69% 30.45 in 10.0 mi WNW 13.8 mph - N/A   Overcast
6:53 PM 27.0 °F 17.3 °F 19.0 °F 72% 30.47 in 8.0 mi NW 10.4 mph - 0.00 in Snow Light Snow
7:53 PM 26.1 °F 15.0 °F 19.0 °F 75% 30.48 in 5.0 mi WNW 12.7 mph - 0.00 in Snow Light Snow
8:33 PM 26.1 °F 16.2 °F 19.9 °F 78% 30.48 in 6.0 mi NW 10.4 mph - 0.00 in Snow Light Snow
8:53 PM 25.0 °F 15.5 °F 21.0 °F 85% 30.50 in 3.0 mi WNW 9.2 mph - 0.00 in Snow Light Snow
9:15 PM 25.0 °F 15.5 °F 21.0 °F 85% 30.49 in 5.0 mi WNW 9.2 mph - 0.00 in Snow Light Snow
9:34 PM 25.0 °F 17.1 °F 21.0 °F 85% 30.50 in 2.5 mi WNW 6.9 mph - 0.00 in Snow Light Snow
9:45 PM 25.0 °F 16.3 °F 21.0 °F 85% 30.50 in 1.8 mi WNW 8.1 mph - 0.00 in Snow Light Snow
9:53 PM 25.0 °F 17.1 °F 21.0 °F 85% 30.52 in 2.0 mi WNW 6.9 mph - 0.00 in Snow Light Snow
10:05 PM 25.0 °F 17.1 °F 21.0 °F 85% 30.50 in 4.0 mi NW 6.9 mph - 0.00 in Snow Light Snow
10:19 PM 25.0 °F 17.1 °F 21.0 °F 85% 30.50 in 5.0 mi WNW 6.9 mph - 0.00 in Snow Light Snow
10:53 PM 26.1 °F 16.8 °F 19.9 °F 78% 30.52 in 10.0 mi WNW 9.2 mph - 0.00 in   Overcast
11:53 PM 25.0 °F 15.5 °F 19.9 °F 81% 30.54 in 6.0 mi WNW 9.2 mph - 0.00 in Snow Light Snow